Notices

What's New in latest Release from April 7th, 2021:

- Updated Glossary, including Speed of Maximum Gust, and Total Hourly Precipitation

- Updated national and regional climate services offices contacts and prices information

- Addition of station inventory lists for 1981-2010, 1971-2000, and 1961-1990 Normals.

If you haven't already, please take our survey and provide feedback about our website: https://eccc.sondage-survey.ca/f/LanguageSelection.aspx?s=442ca660-fcf1-47c0-95a9-59707d6fd709

Hourly Data Report for July 26, 2018

TORONTO CITY
ONTARIO
Current Station Operator: ECCC - MSC

43°40'00.000" N
79°24'00.000" W
112.50 m
6158355
71508
XTO

Download Data

Hourly Data (July 2018)
Hourly Data Report for July 26, 2018
TIME
LST
Temp Definition
°C
Dew Point Definition
°C
Rel Hum Definition
%
Precip. Amount Definition
mm

Wind Dir Definition
10's deg

Wind Spd Definition
km/h
Visibility Definition
km
Stn Press Definition
kPa
Hmdx Definition


Wind Chill Definition


Weather Definition


00:00 20.3 14.0 67 0.0 LegendMM LegendMM   99.79     LegendNANA
01:00 19.7 14.2 71 0.0 LegendMM LegendMM   99.73     LegendNANA
02:00 19.0 13.7 71 0.0 LegendMM LegendMM   99.73     LegendNANA
03:00 18.8 13.5 71 0.0 LegendMM LegendMM   99.69     LegendNANA
04:00 18.6 13.2 71 0.0 LegendMM LegendMM   99.70     LegendNANA
05:00 18.2 12.4 69 0.0 LegendMM LegendMM   99.71     LegendNANA
06:00 18.4 13.6 74 0.0 LegendMM LegendMM   99.73     LegendNANA
07:00 21.3 13.5 61 0.0 LegendMM LegendMM   99.76     LegendNANA
08:00 23.6 13.6 53 0.0 LegendMM LegendMM   99.72 27   LegendNANA
09:00 24.3 15.7 59 0.0 LegendMM LegendMM   99.72 29   LegendNANA
10:00 24.3 15.8 59 0.0 LegendMM LegendMM   99.72 29   LegendNANA
11:00 26.2 16.6 55 0.0 LegendMM LegendMM   99.70 31   LegendNANA
12:00 26.5 16.8 55 0.0 LegendMM LegendMM   99.66 32   LegendNANA
13:00 27.3 17.6 55 0.0 LegendMM LegendMM   99.59 33   LegendNANA
14:00 28.4 16.8 50 0.0 LegendMM LegendMM   99.54 34   LegendNANA
15:00 27.0 16.7 53 0.0 LegendMM LegendMM   99.44 32   LegendNANA
16:00 22.7 15.9 66 0.0 LegendMM LegendMM   99.55 27   LegendNANA
17:00 23.0 17.5 71 0.0 LegendMM LegendMM   99.61 29   LegendNANA
18:00 22.5 15.8 66 0.0 LegendMM LegendMM   99.63 27   LegendNANA
19:00 21.4 15.6 70 0.0 LegendMM LegendMM   99.64 26   LegendNANA
20:00 22.1 17.0 73 0.0 LegendMM LegendMM   99.68 27   LegendNANA
21:00 22.4 17.1 72 0.0 LegendMM LegendMM   99.78 28   LegendNANA
22:00 22.4 15.6 66 0.0 LegendMM LegendMM   99.76 27   LegendNANA
23:00 22.1 16.4 70 0.0 LegendMM LegendMM   99.75 27   LegendNANA

Notes on Data Quality.

Legend

  • E = Estimated
  • M = Missing
  • NA = Not Available*
  • [empty] = Indicates an unobserved value
Date modified: